Washington, NC

7:19 AM EST on November 22, 2017 (GMT -0500)
Warren

Weather History for KOCW - March, 2013

Change the Weather History Date:

Saturday, March 9, 2013

  Actual Average (KPGV) Record (KPGV)
Temperature  
Mean Temperature 48 °F -  
Max Temperature 60 °F 61 °F 90 °F (1974)
Min Temperature 36 °F 38 °F 18 °F (1960)
Degree Days  
Heating Degree Days 16    
Moisture  
Dew Point 24 °F    
Average Humidity 47    
Maximum Humidity 82    
Minimum Humidity 13    
Precipitation  
Precipitation 0.00 in - - ()
Sea Level Pressure  
Sea Level Pressure 30.26 in    
Wind  
Wind Speed 6 mph (NNW)    
Max Wind Speed 14 mph    
Max Gust Speed 20 mph    
Visibility 10 miles    
Events      
Averages and records for this station are not official NWS values.
T = Trace of Precipitation, MM = Missing Value Source: NWS Daily Summary

Daily Weather History Graph

Daily Weather History Graph

Search for Another Location

Airport or City:

Trip Planner

Search our weather history database for the weather conditions in past years. The results will help you decide how hot, cold, wet, or windy it might be!

Date:

Astronomy

Mar. 09, 2013 Rise Set
Actual Time 6:26 AM EST 6:10 PM EST
Civil Twilight 6:01 AM EST 6:36 PM EST
Nautical Twilight 5:32 AM EST 7:05 PM EST
Astronomical Twilight 5:02 AM EST 7:35 PM EST
Moon 4:46 AM EST (3/9) 4:13 PM EST (3/9)
Length of Visible Light 12h 34m
Length of Day
11h 43m
Waning Crescent, 5% of the Moon is Illuminated
Mar 9
Waning Crescent
Mar 11
New
Mar 19
First Quarter
Mar 27
Full
Apr 3
Last Quarter

Hourly Weather History & Observations

Time (EST) Temp. Windchill Dew Point Humidity Pressure Visibility Wind Dir Wind Speed Gust Speed Precip Events Conditions
12:15 AM 42.8 °F 39.3 °F 25.7 °F 51% 30.22 in 10.0 mi NNW 5.8 mph - N/A   Clear
12:35 AM 42.8 °F 39.3 °F 26.4 °F 52% 30.23 in 10.0 mi NW 5.8 mph - N/A   Clear
12:55 AM 42.8 °F 38.6 °F 27.5 °F 55% 30.23 in 10.0 mi NNW 6.9 mph - N/A   Clear
1:15 AM 42.4 °F 38.8 °F 28.2 °F 57% 30.23 in 10.0 mi NNW 5.8 mph - N/A   Clear
1:35 AM 41.0 °F 37.1 °F 27.5 °F 59% 30.23 in 10.0 mi NNW 5.8 mph - N/A   Clear
1:55 AM 40.1 °F 38.0 °F 27.5 °F 61% 30.23 in 10.0 mi NW 3.5 mph - N/A   Clear
2:15 AM 40.1 °F 38.0 °F 28.4 °F 63% 30.23 in 10.0 mi NW 3.5 mph - N/A   Clear
2:35 AM 40.1 °F 36.1 °F 28.9 °F 64% 30.23 in 10.0 mi NW 5.8 mph - N/A   Clear
2:55 AM 40.1 °F 36.1 °F 29.3 °F 65% 30.23 in 10.0 mi NW 5.8 mph - N/A   Clear
3:15 AM 40.1 °F 36.9 °F 29.3 °F 65% 30.23 in 10.0 mi NW 4.6 mph - N/A   Clear
3:35 AM 38.3 °F 34.8 °F 28.8 °F 69% 30.23 in 10.0 mi NW 4.6 mph - N/A   Clear
4:15 AM 37.6 °F 33.1 °F 28.2 °F 69% 30.24 in 10.0 mi NW 5.8 mph - N/A   Clear
4:35 AM 37.6 °F 33.1 °F 28.4 °F 69% 30.24 in 10.0 mi NW 5.8 mph - N/A   Clear
4:55 AM 37.6 °F 33.1 °F 28.4 °F 69% 30.24 in 10.0 mi NW 5.8 mph - N/A   Clear
5:15 AM 37.6 °F 33.1 °F 28.6 °F 70% 30.25 in 10.0 mi NW 5.8 mph - N/A   Clear
5:35 AM 37.6 °F 34.0 °F 28.6 °F 70% 30.25 in 10.0 mi NNW 4.6 mph - N/A   Clear
5:55 AM 37.6 °F 34.0 °F 28.6 °F 70% 30.25 in 10.0 mi NW 4.6 mph - N/A   Clear
6:15 AM 37.6 °F 34.0 °F 28.8 °F 70% 30.26 in 10.0 mi NW 4.6 mph - N/A   Clear
6:35 AM 37.6 °F 33.1 °F 28.8 °F 70% 30.27 in 10.0 mi NW 5.8 mph - N/A   Clear
7:15 AM 37.6 °F 33.1 °F 28.0 °F 68% 30.28 in 10.0 mi NW 5.8 mph - N/A   Clear
7:35 AM 40.1 °F 34.7 °F 29.1 °F 65% 30.28 in 10.0 mi North 8.1 mph - N/A   Clear
7:55 AM 42.6 °F 37.2 °F 28.8 °F 58% 30.28 in 10.0 mi North 9.2 mph - N/A   Clear
8:15 AM 42.8 °F 37.5 °F 26.6 °F 53% 30.28 in 10.0 mi North 9.2 mph - N/A   Clear
8:35 AM 44.1 °F 39.5 °F 25.5 °F 48% 30.29 in 10.0 mi North 8.1 mph - N/A   Clear
8:55 AM 45.1 °F 39.5 °F 23.7 °F 43% 30.29 in 10.0 mi North 11.5 mph - N/A   Clear
9:15 AM 46.4 °F 41.5 °F 21.9 °F 38% 30.29 in 10.0 mi NNE 10.4 mph - N/A   Clear
9:35 AM 47.7 °F - 22.1 °F 37% 30.29 in 10.0 mi North 8.1 mph - N/A   Clear
10:15 AM 50.2 °F - 21.6 °F 33% 30.29 in 10.0 mi North 6.9 mph - N/A   Clear
10:35 AM 52.7 °F - 21.2 °F 29% 30.29 in 10.0 mi NNW 10.4 mph - N/A   Clear
10:55 AM 52.7 °F - 19.9 °F 28% 30.30 in 10.0 mi NNW 10.4 mph - N/A   Clear
11:15 AM 53.1 °F - 19.0 °F 26% 30.29 in 10.0 mi North 10.4 mph 17.3 mph N/A   Clear
11:35 AM 55.4 °F - 18.1 °F 23% 30.29 in 10.0 mi North 12.7 mph 18.4 mph N/A   Clear
11:55 AM 58.1 °F - 19.0 °F 22% 30.28 in 10.0 mi NW 10.4 mph 17.3 mph N/A   Clear
12:15 PM 58.1 °F - 15.8 °F 19% 30.28 in 10.0 mi North 13.8 mph 18.4 mph N/A   Clear
12:35 PM 58.1 °F - 15.6 °F 19% 30.28 in 10.0 mi North 10.4 mph 19.6 mph N/A   Clear
12:55 PM 58.1 °F - 12.7 °F 17% 30.27 in 10.0 mi North 10.4 mph - N/A   Clear
1:15 PM 58.6 °F - 11.7 °F 16% 30.27 in 10.0 mi North 5.8 mph 10.4 mph N/A   Clear
1:35 PM 59.7 °F - 11.3 °F 15% 30.26 in 10.0 mi NNW 4.6 mph 16.1 mph N/A   Clear
1:55 PM 59.5 °F - 13.6 °F 17% 30.26 in 10.0 mi NNW 11.5 mph - N/A   Clear
2:15 PM 60.4 °F - 14.0 °F 16% 30.25 in 10.0 mi North 10.4 mph - N/A   Clear
2:35 PM 60.4 °F - 13.3 °F 16% 30.25 in 10.0 mi NNW 6.9 mph - N/A   Clear
2:55 PM 60.4 °F - 11.8 °F 15% 30.24 in 10.0 mi NNE 6.9 mph - N/A   Clear
3:15 PM 60.4 °F - 11.1 °F 14% 30.24 in 10.0 mi North 12.7 mph 17.3 mph N/A   Clear
3:35 PM 60.4 °F - 12.0 °F 15% 30.24 in 10.0 mi NNW 6.9 mph - N/A   Clear
3:55 PM 60.4 °F - 11.1 °F 14% 30.24 in 10.0 mi NNW 3.5 mph - N/A   Clear
4:15 PM 60.4 °F - 10.8 °F 14% 30.24 in 10.0 mi NNW 9.2 mph - N/A   Clear
4:35 PM 60.4 °F - 9.5 °F 13% 30.23 in 10.0 mi North 5.8 mph - N/A   Clear
4:55 PM 60.4 °F - 8.6 °F 13% 30.24 in 10.0 mi NNW 5.8 mph - N/A   Clear
5:15 PM 60.4 °F - 9.7 °F 13% 30.24 in 10.0 mi North 4.6 mph - N/A   Clear
5:35 PM 60.1 °F - 12.0 °F 15% 30.24 in 10.0 mi NNW 3.5 mph - N/A   Clear
5:55 PM 58.1 °F - 16.2 °F 19% 30.25 in 10.0 mi North 3.5 mph - N/A   Clear
6:15 PM 58.1 °F - 18.7 °F 22% 30.26 in 10.0 mi Calm Calm - N/A   Clear
6:35 PM 52.7 °F - 23.7 °F 32% 30.26 in 10.0 mi Calm Calm - N/A   Clear
6:55 PM 51.1 °F - 28.9 °F 43% 30.27 in 10.0 mi Calm Calm - N/A   Clear
7:15 PM 50.9 °F - 28.4 °F 42% 30.27 in 10.0 mi Calm Calm - N/A   Clear
7:35 PM 46.4 °F - 32.0 °F 57% 30.28 in 10.0 mi Calm Calm - N/A   Clear
7:55 PM 45.5 °F - 32.5 °F 61% 30.28 in 10.0 mi Calm Calm - N/A   Clear
8:15 PM 45.1 °F - 33.3 °F 63% 30.28 in 10.0 mi Calm Calm - N/A   Clear
8:35 PM 43.9 °F - 33.8 °F 68% 30.29 in 10.0 mi Calm Calm - N/A   Clear
8:55 PM 42.8 °F - 32.9 °F 68% 30.29 in 10.0 mi Calm Calm - N/A   Clear
9:15 PM 42.8 °F - 34.0 °F 71% 30.30 in 10.0 mi Calm Calm - N/A   Clear
9:35 PM 40.1 °F - 32.5 °F 74% 30.31 in 10.0 mi Calm Calm - N/A   Clear
9:55 PM 40.1 °F - 33.1 °F 76% 30.31 in 10.0 mi Calm Calm - N/A   Clear
10:15 PM 38.8 °F - 32.2 °F 77% 30.30 in 10.0 mi Calm Calm - N/A   Clear
10:35 PM 37.6 °F - 32.0 °F 80% 30.30 in 10.0 mi Calm Calm - N/A   Clear
10:55 PM 37.8 °F - 31.8 °F 79% 30.30 in 10.0 mi Calm Calm - N/A   Clear
11:15 PM 37.6 °F - 32.0 °F 80% 30.30 in 10.0 mi Calm Calm - N/A   Clear
11:35 PM 37.6 °F - 32.2 °F 81% 30.30 in 10.0 mi Calm Calm - N/A   Clear
11:55 PM 36.7 °F - 31.6 °F 82% 30.30 in 10.0 mi Calm Calm - N/A   Clear